This is the latest recevied weather packets stored in our database for station/object K5KVN. If no packets are shown the sender has not sent any weather packets the latest 10 day(s).
| Time | Temp. | Humidity | Pressure | Rain* | Wind** | Luminosity | Snow |
|---|---|---|---|---|---|---|---|
| 1777579559 | 18.89° C | 48% | 1017.4 hPa | 0 mm | - | - | - |
| 1777578901 | 18.89° C | 51% | 1017.4 hPa | 0 mm | - | - | - |
| 1777578298 | 18.33° C | 51% | 1017.5 hPa | 0 mm | - | - | - |
| 1777577696 | 17.78° C | 51% | 1017.5 hPa | 0 mm | - | - | - |
| 1777577096 | 17.78° C | 52% | 1017.7 hPa | 0 mm | - | - | - |
| 1777576495 | 17.22° C | 51% | 1017.9 hPa | 0 mm | - | - | - |
| 1777575955 | 17.22° C | 59% | 1018.1 hPa | 0 mm | - | - | - |
| 1777575294 | 16.67° C | 60% | 1018.2 hPa | 0 mm | - | - | - |
| 1777574693 | 16.67° C | 58% | 1018.3 hPa | 0 mm | - | - | - |
| 1777574094 | 16.67° C | 64% | 1018.5 hPa | 0 mm | - | - | - |
| 1777573494 | 16.67° C | 61% | 1018.7 hPa | 0 mm | - | - | - |
| 1777572894 | 16.11° C | 59% | 1018.8 hPa | 0 mm | - | - | - |
| 1777572290 | 15.56° C | 60% | 1018.9 hPa | 0 mm | - | - | - |
| 1777571690 | 15.56° C | 63% | 1018.9 hPa | 0 mm | - | - | - |
| 1777571093 | 15.56° C | 62% | 1018.9 hPa | 0 mm | - | - | - |
| 1777570548 | 15.56° C | 62% | 1019 hPa | 0 mm | - | - | - |
| 1777569948 | 15° C | 60% | 1018.9 hPa | 0 mm | - | - | - |
| 1777569286 | 15.56° C | 60% | 1019.1 hPa | 0 mm | - | - | - |
| 1777568748 | 15.56° C | 59% | 1019.3 hPa | 0 mm | - | - | - |
| 1777568089 | 15.56° C | 65% | 1019.6 hPa | 0 mm | - | - | - |
| 1777567487 | 15.56° C | 64% | 1019.8 hPa | 0 mm | - | - | - |
| 1777566948 | 15° C | 63% | 1019.8 hPa | 0 mm | - | - | - |
| 1777566286 | 15° C | 67% | 1019.8 hPa | 0 mm | - | - | - |
| 1777565685 | 14.44° C | 63% | 1019.6 hPa | 0 mm | - | - | - |
| 1777565145 | 14.44° C | 63% | 1019.7 hPa | 0 mm | - | - | - |
* Rain latest hour (hover to see other rain measurements)
** Current wind speed in m/s (hover to see current wind gust speed)